Weather History for Honolulu, HI

Change the Weather History Date:

Tuesday, April 9, 2013

  Actual Average Record
Temperature  
Mean Temperature 76 °F 76 °F  
Max Temperature 82 °F 82 °F 88 °F (1996)
Min Temperature 70 °F 69 °F 60 °F (1957)
Degree Days  
Heating Degree Days 0 0  
Month to date heating degree days 0 0  
Since 1 July heating degree days 0 0  
Cooling Degree Days 11 11  
Month to date cooling degree days 81 99  
Year to date cooling degree days 836 874  
Growing Degree Days 26 (Base 50)    
Moisture  
Dew Point 65 °F    
Average Humidity 69    
Maximum Humidity 79    
Minimum Humidity 58    
Precipitation  
Precipitation 0.03 in 0.02 in 0.45 in (1991)
Month to date precipitation 0.03 0.29  
Year to date precipitation 6.05 6.61  
Snow  
Snow 0.00 in - - ()
Month to date snowfall 0.0  
Since 1 July snowfall 0.0  
Snow Depth 0.00 in    
Sea Level Pressure  
Sea Level Pressure 30.03 in    
Wind  
Wind Speed 7 mph (ENE)    
Max Wind Speed 18 mph    
Max Gust Speed 23 mph    
Visibility 10 miles    
Events Rain    
T = Trace of Precipitation, MM = Missing Value Source: NWS Daily Summary

Daily Weather History Graph

Daily Weather History Graph

Search for Another Location

Airport:

Trip Planner

Search our weather history database for the weather conditions in past years. The results will help you decide how hot, cold, wet, or windy it might be!

Date:

Astronomy

Apr. 09, 2013 Rise Set
Actual Time 6:17 AM HST 6:49 PM HST
Civil Twilight 5:54 AM HST 7:11 PM HST
Nautical Twilight 5:28 AM HST 7:38 PM HST
Astronomical Twilight 5:01 AM HST 8:04 PM HST
Moon 5:44 AM HST (4/9) 6:33 PM HST (4/9)
Length of Visible Light 13h 16m
Length of Day
12h 31m
Waning Crescent, 0% of the Moon is Illuminated
Apr 9
Waning Crescent
Apr 9
New
Apr 18
First Quarter
Apr 25
Full
May 2
Last Quarter

Hourly Weather History & Observations

Time (HST) Temp. Heat Index Dew Point Humidity Pressure Visibility Wind Dir Wind Speed Gust Speed Precip Events Conditions
12:53 AM 73.9 °F - 64.9 °F 73% 30.06 in 10.0 mi NE 5.8 mph - N/A   Mostly Cloudy
1:53 AM 73.9 °F - 64.9 °F 73% 30.05 in 10.0 mi NE 3.5 mph - N/A   Overcast
2:53 AM 73.0 °F - 66.0 °F 79% 30.02 in 10.0 mi NNE 5.8 mph - N/A   Mostly Cloudy
3:53 AM 73.0 °F - 64.9 °F 76% 30.00 in 10.0 mi ENE 9.2 mph - N/A   Partly Cloudy
4:53 AM 72.0 °F - 64.0 °F 76% 30.00 in 10.0 mi East 3.5 mph - N/A   Partly Cloudy
5:53 AM 72.0 °F - 64.0 °F 76% 30.00 in 10.0 mi Calm Calm - N/A   Partly Cloudy
6:53 AM 71.1 °F - 64.0 °F 78% 30.02 in 10.0 mi Calm Calm - N/A   Partly Cloudy
7:53 AM 75.9 °F - 64.9 °F 69% 30.04 in 10.0 mi NE 6.9 mph - N/A   Scattered Clouds
8:53 AM 79.0 °F - 64.9 °F 62% 30.05 in 10.0 mi NE 9.2 mph - N/A   Scattered Clouds
9:53 AM 78.1 °F - 64.9 °F 64% 30.06 in 10.0 mi ESE 10.4 mph - N/A   Scattered Clouds
10:53 AM 81.0 °F 82.5 °F 64.0 °F 56% 30.05 in 10.0 mi East 9.2 mph - N/A   Scattered Clouds
11:53 AM 77.0 °F - 68.0 °F 74% 30.04 in 10.0 mi SE 12.7 mph - 0.03 in Rain Light Rain
12:53 PM 79.0 °F - 68.0 °F 69% 30.03 in 10.0 mi SSE 12.7 mph 18.4 mph 0.00 in   Mostly Cloudy
1:53 PM 78.1 °F - 66.9 °F 68% 30.01 in 10.0 mi SSE 5.8 mph - 0.00 in Rain Light Rain
2:53 PM 80.1 °F 81.7 °F 64.0 °F 58% 29.98 in 10.0 mi East 12.7 mph - 0.00 in   Scattered Clouds
3:53 PM 81.0 °F 82.5 °F 64.0 °F 56% 29.98 in 10.0 mi ENE 11.5 mph - N/A   Mostly Cloudy
4:53 PM 80.1 °F 81.5 °F 63.0 °F 56% 29.98 in 10.0 mi East 20.7 mph 24.2 mph N/A   Scattered Clouds
5:53 PM 79.0 °F - 64.0 °F 60% 29.99 in 10.0 mi ENE 12.7 mph - N/A   Scattered Clouds
6:53 PM 75.9 °F - 64.9 °F 69% 30.02 in 10.0 mi East 10.4 mph - N/A   Scattered Clouds
7:53 PM 75.0 °F - 64.0 °F 69% 30.04 in 10.0 mi East 10.4 mph - N/A   Scattered Clouds
8:53 PM 73.9 °F - 64.0 °F 71% 30.06 in 10.0 mi ENE 8.1 mph - N/A   Partly Cloudy
9:53 PM 75.0 °F - 64.9 °F 71% 30.08 in 10.0 mi ENE 10.4 mph - N/A   Scattered Clouds
10:53 PM 73.9 °F - 64.9 °F 73% 30.09 in 10.0 mi ENE 11.5 mph - N/A   Scattered Clouds
11:53 PM 73.0 °F - 66.9 °F 81% 30.08 in 10.0 mi East 10.4 mph - N/A   Scattered Clouds